Вернуться в каталог

SL-3 R/B

АктивенPO
NORAD 7715·ROCKET BODY·🇷🇺 Russia

Запущен Apr 1, 1975 с Plesetsk Cosmodrome

Loading…

Ближайшие Пролёты (ближайшие 24 часа)

TLE

СвежийSource: Space-Track

Эпоха: Sep 14, 2026, 04:56 UTC

1 07715U 75023B   26257.20598248  .00000218  00000-0  12143-3 0  9992
2 07715  81.2222 192.6445 0051612 353.4566   6.5923 14.07215627640052

Отслеживайте SL-3 R/B в реальном времени с AllMySat

Download on the App Store